HVDC transfer

From www.emi.ea.govt.nz provided by the Electricity Authority (New Zealand)
Run at: 20240511045022

Parameters
Date range,28 Mar 2024 - 28 Mar 2024
Time scale,Trading period
Show,Average flow (MW)

Period start,Period end,Trading period,Direction,Energy transfer (GWh),Peak flow (MW),Average flow (MW)
28/03/2024 00:00:00,28/03/2024 00:30:00,1,Southward at Benmore,-0.123,-246,-246
28/03/2024 00:30:00,28/03/2024 01:00:00,2,Southward at Benmore,-0.123,-246,-246
28/03/2024 01:00:00,28/03/2024 01:30:00,3,Southward at Benmore,-0.146,-292,-292
28/03/2024 01:30:00,28/03/2024 02:00:00,4,Southward at Benmore,-0.140,-281,-281
28/03/2024 02:00:00,28/03/2024 02:30:00,5,Southward at Benmore,-0.152,-304,-304
28/03/2024 02:30:00,28/03/2024 03:00:00,6,Southward at Benmore,-0.160,-320,-320
28/03/2024 03:00:00,28/03/2024 03:30:00,7,Southward at Benmore,-0.164,-329,-329
28/03/2024 03:30:00,28/03/2024 04:00:00,8,Southward at Benmore,-0.177,-354,-354
28/03/2024 04:00:00,28/03/2024 04:30:00,9,Southward at Benmore,-0.183,-366,-366
28/03/2024 04:30:00,28/03/2024 05:00:00,10,Southward at Benmore,-0.198,-397,-397
28/03/2024 05:00:00,28/03/2024 05:30:00,11,Southward at Benmore,-0.136,-272,-272
28/03/2024 05:30:00,28/03/2024 06:00:00,12,Southward at Benmore,-0.113,-226,-226
28/03/2024 06:00:00,28/03/2024 06:30:00,13,Southward at Benmore,-0.140,-281,-281
28/03/2024 06:30:00,28/03/2024 07:00:00,14,Southward at Benmore,-0.092,-185,-185
28/03/2024 07:00:00,28/03/2024 07:30:00,15,Southward at Benmore,-0.050,-100,-100
28/03/2024 07:30:00,28/03/2024 08:00:00,16,Southward at Benmore,-0.005,-10,-10
28/03/2024 08:00:00,28/03/2024 08:30:00,17,Southward at Benmore,-0.010,-21,-21
28/03/2024 08:30:00,28/03/2024 09:00:00,18,Southward at Benmore,-0.040,-80,-80
28/03/2024 09:00:00,28/03/2024 09:30:00,19,Southward at Benmore,-0.067,-134,-134
28/03/2024 09:30:00,28/03/2024 10:00:00,20,Southward at Benmore,-0.080,-160,-160
28/03/2024 10:00:00,28/03/2024 10:30:00,21,Southward at Benmore,-0.088,-176,-176
28/03/2024 10:30:00,28/03/2024 11:00:00,22,Southward at Benmore,-0.066,-133,-133
28/03/2024 11:00:00,28/03/2024 11:30:00,23,Southward at Benmore,-0.054,-109,-109
28/03/2024 11:30:00,28/03/2024 12:00:00,24,Southward at Benmore,-0.067,-134,-134
28/03/2024 12:00:00,28/03/2024 12:30:00,25,Southward at Benmore,-0.073,-147,-147
28/03/2024 12:30:00,28/03/2024 13:00:00,26,Southward at Benmore,-0.072,-145,-145
28/03/2024 13:00:00,28/03/2024 13:30:00,27,Southward at Benmore,-0.071,-142,-142
28/03/2024 13:30:00,28/03/2024 14:00:00,28,Southward at Benmore,-0.084,-169,-169
28/03/2024 14:00:00,28/03/2024 14:30:00,29,Southward at Benmore,-0.085,-171,-171
28/03/2024 14:30:00,28/03/2024 15:00:00,30,Southward at Benmore,-0.066,-132,-132
28/03/2024 15:00:00,28/03/2024 15:30:00,31,Southward at Benmore,-0.083,-167,-167
28/03/2024 15:30:00,28/03/2024 16:00:00,32,Southward at Benmore,-0.107,-214,-214
28/03/2024 16:00:00,28/03/2024 16:30:00,33,Southward at Benmore,-0.093,-186,-186
28/03/2024 16:30:00,28/03/2024 17:00:00,34,Southward at Benmore,-0.096,-193,-193
28/03/2024 17:00:00,28/03/2024 17:30:00,35,Southward at Benmore,-0.110,-221,-221
28/03/2024 17:30:00,28/03/2024 18:00:00,36,Southward at Benmore,-0.134,-269,-269
28/03/2024 18:00:00,28/03/2024 18:30:00,37,Southward at Benmore,-0.136,-273,-273
28/03/2024 18:30:00,28/03/2024 19:00:00,38,Southward at Benmore,-0.075,-151,-151
28/03/2024 19:00:00,28/03/2024 19:30:00,39,Southward at Benmore,-0.058,-117,-117
28/03/2024 19:30:00,28/03/2024 20:00:00,40,Southward at Benmore,-0.067,-135,-135
28/03/2024 20:00:00,28/03/2024 20:30:00,41,Southward at Benmore,-0.077,-155,-155
28/03/2024 20:30:00,28/03/2024 21:00:00,42,Southward at Benmore,-0.100,-200,-200
28/03/2024 21:00:00,28/03/2024 21:30:00,43,Southward at Benmore,-0.130,-260,-260
28/03/2024 21:30:00,28/03/2024 22:00:00,44,Southward at Benmore,-0.099,-199,-199
28/03/2024 22:00:00,28/03/2024 22:30:00,45,Southward at Benmore,-0.153,-306,-306
28/03/2024 22:30:00,28/03/2024 23:00:00,46,Southward at Benmore,-0.152,-304,-304
28/03/2024 23:00:00,28/03/2024 23:30:00,47,Southward at Benmore,-0.122,-245,-245
28/03/2024 23:30:00,29/03/2024 00:00:00,48,Southward at Benmore,-0.148,-297,-297
